Tracking 31011 objects as of 13-Jul-2025
HD Live streaming from Space Station
objects crossing your sky now

STARLINK-30128

Track STARLINK-30128 now!
10-day predictions
STARLINK-30128 is classified as:


NORAD ID: 56832
Int'l Code: 2023-079K
Perigee: 565.3 km
Apogee: 567.2 km
Inclination: 43.0 °
Period: 95.8 minutes
Semi major axis: 6937 km
RCS: Unknown
Launch date: June 4, 2023
Source: United States (US)
Launch site: AIR FORCE EASTERN TEST RANGE (AFETR)
Your satellite tracking list
Your tracking list is empty




NASA's NSSDC Master Catalog

Two Line Element Set (TLE):
1 56832U 23079K   25193.99809967  .00000101  00000-0  22556-4 0  9998
2 56832  43.0035 303.7940 0001395 268.6703  91.3980 15.02533434116791
Source of the keplerian elements: AFSPC